|
BREEZE M DEB (TANK) - Orbit
|
Muleshoe NWR;
23:33:11
| Home | Info | Passes |
|
View from above orbital plane
|
View from above satellite
|
Ground track
|
The orbit data is extracted from the following two-line orbital elements,
1 28359U 04022B 13168.15146627 .00004972 00000-0 67115-3 0 9902
2 28359 049.5233 047.9082 4745958 080.5955 019.5281 06.06156684195507
| Epoch (UTC): | 17 June 2013 03:38:06 |
| Eccentricity: | 0.4745958 |
| inclination: | 49.5233° |
| perigee height: | 298 km |
| apogee height: | 12358 km |
| right ascension of ascending node: | 47.9082° |
| argument of perigee: | 80.5955° |
| revolutions per day: | 6.06156684 |
| mean anomaly at epoch: | 19.5281° |
| orbit number at epoch: | 19550 |
The dashed part of the orbit path shows where the satellite is in the earth's shadow,
|
|